Regional Weather Roundup
Issued by NWS

Home | Current Version | Previous Version | Graphics & Text | Print | Product List | Glossary On
Versions: 1 2 3 4 5 6 7 8 9 10 11 12 13 14 15 16 17 18 19 20 21 22 23 24 25 26 27 28 29 30 31 32 33 34 35 36 37 38 39 40 41 42 43 44 45 46 47 48 49 50
642
ASUS45 KCYS 221910
RWRWY

WYOMING REGIONAL WEATHER ROUNDUP
NATIONAL WEATHER SERVICE CHEYENNE WY
1200 PM MST THU FEB 22 2018

NOTE:  "FAIR" INDICATES FEW OR NO CLOUDS BELOW 12,000 FEET
WITH NO SIGNIFICANT WEATHER AND/OR OBSTRUCTIONS TO VISIBILITY.

WYZ001-222000-
YELLOWSTONE NATIONAL PARK

CITY           SKY/WX    TMP DP  RH WIND       PRES   REMARKS
LK YELLOWSTONE   N/A     11  -1  58 CALM      29.88F
W YELLOWSTONE  NOT AVBL

$$
WYZ002>013-054>058-071-098>099-222000-
NORTHERN WYOMING

CITY           SKY/WX    TMP DP  RH WIND       PRES   REMARKS
JACKSON        CLOUDY    11   1  64 CALM      29.96F
CODY           FAIR      27   7  42 VRB3      29.99F
GREYBULL       FAIR       1  -5  75 CALM      30.09F
WORLAND        FAIR      10  -1  61 CALM      30.04F
SHERIDAN       CLOUDY    14   0  53 CALM      30.05F
BUFFALO        FAIR      25   3  38 E3        29.99F
GILLETTE       FAIR      21   4  47 CALM      30.02F
HULETT         MOCLDY    23  10  58 MISG      30.03F
NEWCASTLE      FAIR      19  10  68 W7        30.04F WCI  10

$$
WYZ014>020-022>026-101>103-222000-
CENTRAL WYOMING

CITY           SKY/WX    TMP DP  RH WIND       PRES   REMARKS
BIG PINEY      PTSUNNY   13   2  61 CALM      29.93F
PINEDALE       MOCLDY    18   5  57 CALM      29.93S
DUBOIS           N/A    N/A N/A N/A MISG      29.87
LANDER         FAIR       9   0  67 NE3       29.97F
RIVERTON       FAIR       6  -3  66 NE5       29.98F WCI  -3
CASPER         FAIR      13   5  70 SW5       29.99F WCI   5
DOUGLAS        CLOUDY    18   9  68 NW12      29.99F WCI   5

$$
WYZ021-027>030-104>119-222000-
SOUTHERN WYOMING

CITY           SKY/WX    TMP DP  RH WIND       PRES   REMARKS
EVANSTON       CLOUDY    13   4  67 NE7       29.88F WCI   3
ROCK SPRINGS   FAIR      13   4  67 CALM      29.92F
DIXON          FAIR      21  12  69 NW3       29.96F
RAWLINS        CLOUDY    13   7  77 MISG      29.93F
SARATOGA       CLOUDY    16   9  73 CALM      29.93S
LARAMIE        FAIR      13   5  70 NW12      29.86F WCI  -1
CHEYENNE       PTSUNNY   23  14  68 N9        29.89F WCI  13
TORRINGTON     FAIR      20  14  77 CALM      30.01F
PINE BLUFFS    CLOUDY    19  16  86 MISG      29.97F

$$




USA.gov is the U.S. government's official web portal to all federal, state and local government web resources and services.